Regional Weather Roundup
Issued by NWS

Home | Current Version | Previous Version | Graphics & Text | Print | Product List | Glossary On
Versions: 1 2 3 4 5 6 7 8 9 10 11 12 13 14 15 16 17 18 19 20 21 22 23 24 25 26 27 28 29 30 31 32 33 34 35 36 37 38 39 40 41 42 43 44 45 46 47 48 49 50
000
ASUS44 KMEG 010910
RWRTN
TENNESSEE HOURLY STATE WEATHER ROUNDUP
NATIONAL WEATHER SERVICE MEMPHIS TN
300 AM CST SUN FEB 01 2015

TNZ002-004-019-021-049-052-054-088>092-011000-
WEST TENNESSEE

CITY           SKY/WX    TMP DP  RH WIND       PRES   REMARKS
MEMPHIS INTL   CLOUDY    51  25  36 S15G23    29.98F
NWS MEMPHIS      N/A     50 N/A N/A MISG        N/A
JACKSON        CLOUDY    50  21  32 S10       30.01F
DYERSBURG      CLOUDY    46  19  34 SE9       29.99F
UNION CITY     MOCLDY    45  23  42 SE13      29.97F
PARIS          MOCLDY    45  19  36 SE10      30.01F
LEXINGTON      MOCLDY    48  19  32 S7        30.03F
SAVANNAH       CLEAR     48  21  34 S5        30.06S
$$

TNZ008-025-027-028-033-062-065-066-011000-
NORTH MIDDLE TENNESSEE

CITY           SKY/WX    TMP DP  RH WIND       PRES   REMARKS
NASHVILLE      CLOUDY    47  19  33 S9        30.09F
CLARKSVILLE    CLOUDY    46  18  32 CALM      30.05F
SMYRNA         CLOUDY    45  21  38 S7        30.10F
COOKEVILLE     CLEAR     45  18  33 S10       30.10F
CROSSVILLE     CLOUDY    43  15  32 S10G21    30.13F
$$

TNZ061-075-076-078-094-096-097-011000-
SOUTH MIDDLE TENNESSEE

CITY           SKY/WX    TMP DP  RH WIND       PRES   REMARKS
FAYETTEVILLE   CLEAR     45  19  36 MISG      30.11F
TULLAHOMA      CLEAR     45  16  31 S8        30.12S
WINCHESTER     CLOUDY    46  19  34 S15       30.12S
MCMINNVILLE    PTCLDY    46  19  34 S3        30.10F
COLUMBIA       CLOUDY    48  21  34 S9        30.05F
SHELBYVILLE    CLOUDY    48  21  34 SE8       30.11F
$$

TNZ017-018-042-046-047-011000-
NORTHEAST TENNESSEE

CITY           SKY/WX    TMP DP  RH WIND       PRES   REMARKS
TRI CITIES     CLOUDY    34  21  59 E6        30.18F WCI  29
ELIZABETHTON   PTSUNNY   36  14  41 CALM      30.19S
$$

TNZ012-013-036-069-073-074-011000-
CENTRAL EAST TENNESSEE

CITY           SKY/WX    TMP DP  RH WIND       PRES   REMARKS
KNOXVILLE      CLOUDY    36  26  67 CALM      30.19S
OAK RIDGE      CLOUDY    38  25  59 CALM      30.22R
GATLINBURG     MOSUNNY   34  25  69 CALM      30.19S
MORRISTOWN     SUNNY     36  18  48 CALM      30.19S
$$

TNZ083-085-099-011000-
SOUTHEAST TENNESSEE

CITY           SKY/WX    TMP DP  RH WIND       PRES   REMARKS
CHATTANOOGA    CLOUDY    39  28  64 CALM      30.20F
$$

SKY/WX REPORTED AS FAIR MEANS FEW OR NO CLOUDS BELOW
12 THOUSAND FEET.



USA.gov is the U.S. government's official web portal to all federal, state and local government web resources and services.